DW4236 Weather Reports


time (UTC)temp
F
wind
direction
speed
knots
gust
knots
rain 1hr
in
rain 24hr
in
rain mn
in
humidity
%
barometer
mb
20260507205603 63 34 4.3 10.4 0.00 0.04 0.04 38 1009.0
20260507205104 62 51 3.5 8.7 0.00 0.04 0.04 37 1008.9
20260507203605 64 338 6.1 13.0 0.00 0.04 0.04 35 1008.9
20260507203104 64 23 4.3 10.4 0.00 0.04 0.04 36 1008.9
20260507202604 64 63 2.6 10.4 0.00 0.04 0.04 37 1009.0
20260507202104 64 358 2.6 10.4 0.00 0.04 0.04 36 1009.0
20260507201603 64 344 4.3 13.0 0.00 0.04 0.04 37 1008.8
20260507200603 65 24 1.7 7.8 0.00 0.04 0.04 39 1009.0
20260507195604 63 41 5.2 10.4 0.00 0.04 0.04 39 1009.1
20260507195104 63 19 3.5 7.8 0.00 0.04 0.04 38 1009.1
20260507194604 64 318 4.3 7.8 0.00 0.05 0.04 37 1009.2
20260507194104 64 27 4.3 10.4 0.00 0.05 0.04 38 1009.3
20260507193103 65 16 2.6 5.2 0.00 0.05 0.04 40 1009.4
20260507191104 62 50 2.6 7.8 0.00 0.05 0.04 38 1009.5
20260507190604 63 325 5.2 10.4 0.00 0.05 0.04 38 1009.7
20260507190105 63 354 4.3 8.7 0.00 0.05 0.04 40 1009.8
20260507185103 63 4 5.2 14.8 0.00 0.05 0.04 39 1009.8
20260507184103 62 251 1.7 10.4 0.00 0.05 0.04 39 1010.0
20260507183103 63 340 5.2 10.4 0.00 0.05 0.04 37 1010.0
20260507182603 63 24 4.3 11.3 0.00 0.05 0.04 39 1010.2
20260507182104 61 337 1.7 7.0 0.00 0.05 0.04 42 1010.1
20260507181604 63 2 4.3 7.8 0.00 0.05 0.04 41 1010.3
20260507181104 63 42 4.3 10.4 0.00 0.05 0.04 40 1010.3
20260507180103 63 327 3.5 10.4 0.00 0.05 0.04 40 1010.3
20260507175604 63 356 3.5 10.4 0.00 0.06 0.04 40 1010.3
20260507175103 63 319 3.5 10.4 0.00 0.06 0.04 40 1010.4
20260507174104 62 49 4.3 10.4 0.00 0.07 0.04 41 1010.4
20260507172603 62 13 2.6 7.8 0.00 0.07 0.04 41 1010.6
20260507172104 62 5 2.6 10.4 0.00 0.07 0.04 40 1010.7
20260507171603 61 339 5.2 11.3 0.00 0.07 0.04 40 1010.8
20260507171104 61 347 3.5 10.4 0.00 0.07 0.04 44 1010.7
20260507170604 61 0 4.3 10.4 0.00 0.07 0.04 43 1010.8
20260507170104 62 354 3.5 10.4 0.00 0.07 0.04 40 1010.9
20260507165603 62 355 4.3 10.4 0.00 0.08 0.04 45 1010.8
20260507165104 61 310 4.3 10.4 0.00 0.08 0.04 40 1011.0
20260507164603 61 43 2.6 8.7 0.00 0.08 0.04 44 1011.1
20260507163603 60 28 2.6 10.4 0.00 0.08 0.04 46 1011.2
20260507163103 59 346 4.3 11.3 0.00 0.09 0.04 46 1011.3
20260507162604 60 358 3.5 8.7 0.00 0.09 0.04 44 1011.4
20260507162103 60 58 3.5 7.8 0.00 0.10 0.04 49 1011.4
20260507160604 60 23 3.5 7.8 0.00 0.11 0.04 46 1011.7
20260507160104 59 306 0.9 5.2 0.00 0.11 0.04 45 1011.7
20260507155603 59 29 2.6 6.1 0.00 0.11 0.04 44 1011.9
20260507155103 59 292 1.7 8.7 0.00 0.12 0.04 46 1012.0
20260507154604 59 329 3.5 7.0 0.00 0.12 0.04 43 1012.2
20260507154104 59 44 6.1 10.4 0.00 0.12 0.04 46 1012.2
20260507153604 59 62 2.6 8.7 0.00 0.12 0.04 48 1012.2
20260507153103 58 40 0.0 2.6 0.00 0.12 0.04 48 1012.2
20260507152604 58 25 3.5 7.8 0.00 0.12 0.04 48 1012.5
20260507152104 58 16 2.6 5.2 0.00 0.12 0.04 46 1012.4
20260507151603 58 344 3.5 10.4 0.00 0.12 0.04 46 1012.5
20260507151104 58 18 2.6 7.0 0.00 0.12 0.04 49 1012.4
20260507150105 57 58 6.1 12.2 0.00 0.12 0.04 46 1012.4
20260507145605 57 108 6.1 10.4 0.00 0.12 0.04 44 1012.4
20260507145106 58 144 4.3 11.3 0.00 0.12 0.04 45 1012.5
20260507144604 58 87 4.3 7.0 0.00 0.12 0.04 49 1012.5
20260507144105 57 313 1.7 2.6 0.00 0.12 0.04 47 1012.5
20260507143605 57 75 1.7 7.0 0.00 0.12 0.04 46 1012.6
20260507143104 57 313 3.5 6.1 0.00 0.12 0.04 47 1012.7
20260507142105 56 58 4.3 10.4 0.00 0.12 0.04 46 1012.7
20260507141605 56 39 2.6 10.4 0.00 0.12 0.04 45 1012.7
20260507140106 56 357 5.2 8.7 0.00 0.12 0.04 46 1013.0
20260507135105 55 60 5.2 10.4 0.00 0.12 0.04 46 1012.9
20260507134605 55 68 5.2 11.3 0.00 0.12 0.04 48 1012.9
20260507134106 54 69 5.2 13.0 0.00 0.12 0.04 48 1013.0
20260507133605 55 25 6.1 13.9 0.00 0.12 0.04 46 1013.0
20260507133105 55 52 5.2 11.3 0.00 0.12 0.04 48 1012.8
20260507132606 55 73 2.6 14.8 0.00 0.12 0.04 50 1012.8
20260507132105 54 33 1.7 7.0 0.00 0.12 0.04 54 1012.9
20260507131605 55 35 1.7 7.0 0.00 0.12 0.04 57 1012.8
20260507131105 54 38 1.7 7.8 0.00 0.12 0.04 61 1012.8
20260507130606 54 122 4.3 7.0 0.00 0.12 0.04 61 1012.7
20260507130105 54 358 0.9 7.0 0.00 0.12 0.04 65 1012.6
20260507125604 53 10 1.7 7.0 0.00 0.12 0.04 66 1012.6
20260507125106 53 70 0.9 7.0 0.00 0.12 0.04 67 1012.5
20260507124605 53 77 4.3 7.8 0.00 0.12 0.04 68 1012.5
20260507123605 52 73 5.2 10.4 0.00 0.12 0.04 70 1012.4
20260507123106 52 90 4.3 10.4 0.00 0.12 0.04 72 1012.4
20260507122605 51 63 5.2 10.4 0.00 0.12 0.04 74 1012.4
20260507121605 50 107 5.2 10.4 0.00 0.12 0.04 80 1012.4
20260507121105 50 71 4.3 10.4 0.00 0.12 0.04 85 1012.4
20260507120606 49 1 1.7 6.1 0.00 0.12 0.04 87 1012.3
20260507120104 49 48 0.0 1.7 0.00 0.12 0.04 87 1012.4
20260507115604 49 51 0.0 0.9 0.00 0.12 0.04 88 1012.4
20260507114604 50 25 0.0 1.7 0.00 0.12 0.04 89 1012.3
20260507114105 50 47 1.7 6.1 0.00 0.12 0.04 90 1012.2
20260507113605 50 356 0.9 2.6 0.00 0.12 0.04 90 1012.1
20260507113105 49 358 0.0 2.6 0.00 0.12 0.04 91 1012.1
20260507112604 49 3 0.0 0.0 0.00 0.12 0.04 91 1012.1
20260507112105 49 3 0.0 0.0 0.00 0.12 0.04 91 1012.2
20260507111606 49 3 0.0 0.0 0.00 0.12 0.04 91 1012.1
20260507111104 48 3 0.0 1.7 0.00 0.12 0.04 91 1012.0
20260507110605 48 0 0.0 1.7 0.00 0.12 0.04 91 1011.9
20260507110105 48 359 0.0 0.9 0.00 0.12 0.04 91 1012.0
20260507105609 48 359 0.0 0.9 0.00 0.12 0.04 92 1011.8
20260507105105 48 359 0.9 1.7 0.00 0.12 0.04 92 1011.6
20260507104606 48 359 0.0 1.7 0.00 0.12 0.04 92 1011.4
20260507104106 47 359 0.9 1.7 0.00 0.12 0.04 92 1011.5
20260507103604 47 359 0.0 1.7 0.00 0.12 0.04 92 1011.3
20260507103104 47 359 0.9 1.7 0.00 0.12 0.04 91 1011.2
20260507102606 47 359 0.0 1.7 0.00 0.12 0.04 91 1011.2
20260507102105 47 359 0.0 0.9 0.00 0.12 0.04 91 1011.2
20260507101605 47 359 0.0 0.0 0.00 0.12 0.04 91 1011.2
20260507100605 47 359 0.0 0.0 0.00 0.12 0.04 91 1011.0
20260507100105 47 359 0.0 0.0 0.00 0.12 0.04 91 1010.9
20260507095105 47 359 0.0 0.0 0.00 0.12 0.04 91 1010.9
20260507094605 47 359 0.0 0.0 0.00 0.12 0.04 91 1010.7
20260507094104 47 359 0.0 2.6 0.00 0.12 0.04 91 1010.7
20260507093605 47 359 0.9 1.7 0.00 0.12 0.04 90 1010.7
20260507093106 47 359 0.9 2.6 0.00 0.12 0.04 90 1010.6
20260507092606 47 359 0.0 1.7 0.00 0.12 0.04 90 1010.6
20260507092106 48 359 0.0 1.7 0.00 0.12 0.04 90 1010.9
20260507091606 48 359 0.0 0.0 0.00 0.12 0.04 90 1010.8
20260507090105 48 359 0.0 1.7 0.00 0.12 0.04 90 1010.9
20260507085605 49 359 0.0 2.6 0.00 0.12 0.04 90 1010.8
20260507085105 49 359 0.9 2.6 0.00 0.12 0.04 90 1010.8
20260507084106 49 359 0.9 2.6 0.01 0.12 0.04 90 1010.6
20260507083105 49 3 0.9 5.2 0.01 0.12 0.04 91 1010.8
20260507082605 49 0 1.7 2.6 0.01 0.12 0.04 91 1010.7
20260507082105 49 355 0.9 2.6 0.01 0.12 0.04 91 1011.0
20260507081604 49 318 0.9 2.6 0.01 0.12 0.04 91 1011.0
20260507081105 49 315 0.0 2.6 0.01 0.12 0.04 91 1011.1
20260507080604 49 338 1.7 4.3 0.01 0.12 0.04 91 1010.9
20260507080105 50 345 1.7 2.6 0.01 0.12 0.04 91 1011.0
20260507075605 50 313 0.9 2.6 0.02 0.12 0.04 91 1010.9
20260507075106 50 311 0.9 2.6 0.02 0.12 0.04 91 1010.9
20260507074604 50 290 1.7 2.6 0.02 0.12 0.04 91 1011.2
20260507073105 51 326 0.0 2.6 0.01 0.11 0.03 91 1011.1
20260507072105 51 3 0.0 1.7 0.01 0.11 0.03 91 1011.2
20260507071604 51 3 0.9 1.7 0.02 0.11 0.03 91 1011.1
20260507071105 51 323 0.0 2.6 0.02 0.11 0.03 90 1011.3
20260507070605 51 319 0.0 5.2 0.02 0.11 0.03 90 1011.3
20260507070104 51 305 0.0 2.6 0.02 0.11 0.03 90 1011.3
20260507065604 51 304 0.9 2.6 0.01 0.10 0.02 90 1011.4
20260507064606 52 299 0.0 0.9 0.02 0.10 0.02 89 1010.9
20260507063604 52 299 0.0 0.9 0.02 0.10 0.02 89 1010.8
20260507063105 52 299 1.7 2.6 0.02 0.10 0.02 88 1011.0
20260507062605 52 297 1.7 2.6 0.02 0.10 0.02 88 1010.8
20260507062104 52 314 0.0 0.9 0.02 0.10 0.02 87 1010.5
20260507061605 52 314 0.0 0.0 0.01 0.09 0.01 87 1010.7
20260507061105 52 314 0.0 1.7 0.01 0.09 0.01 87 1010.6
20260507060605 53 314 0.9 1.7 0.01 0.09 0.01 86 1010.6
20260507060104 53 314 0.0 1.7 0.01 0.09 0.01 86 1010.5
20260507055604 53 314 0.9 1.7 0.01 0.09 0.01 85 1010.4
20260507055106 53 314 0.9 1.7 0.01 0.09 0.01 84 1010.4
20260507054606 53 344 0.0 0.0 0.00 0.08 0.00 84 1010.0
20260507054106 53 336 0.0 0.0 0.00 0.08 0.00 84 1010.1
20260507053105 53 336 0.0 0.0 0.00 0.08 0.00 83 1010.0
20260507051104 54 321 0.9 1.7 0.00 0.08 0.00 82 1010.1
20260507050105 54 336 0.9 2.6 0.00 0.08 0.00 82 1010.4
20260507045606 54 339 0.9 2.6 0.00 0.08 0.00 82 1010.6
20260507045104 54 339 0.9 2.6 0.00 0.08 0.00 82 1010.8
20260507043604 54 349 0.0 0.0 0.00 0.08 0.00 82 1010.8
20260507043106 54 349 0.0 0.0 0.00 0.08 0.00 81 1010.8
20260507042605 54 349 0.9 2.6 0.00 0.08 0.00 81 1010.8
20260507042104 54 347 0.0 0.0 0.00 0.08 0.00 81 1010.5
20260507041605 54 347 0.0 0.9 0.00 0.08 0.00 81 1010.4
20260507041106 54 347 0.0 0.9 0.00 0.08 0.00 81 1010.6
20260507040605 55 347 0.9 2.6 0.00 0.08 0.00 81 1010.8
20260507040106 55 348 0.0 2.6 0.00 0.08 0.00 81 1010.8
20260507035605 55 336 0.9 2.6 0.00 0.08 0.08 81 1010.8
20260507035105 55 336 1.7 5.2 0.00 0.08 0.08 81 1010.6
20260507034606 55 355 0.0 0.9 0.00 0.08 0.08 81 1010.7
20260507034106 55 353 0.0 4.3 0.00 0.08 0.08 81 1010.5
20260507033105 55 18 0.9 2.6 0.00 0.08 0.08 81 1010.4
20260507032605 55 358 0.9 2.6 0.00 0.08 0.08 81 1010.3
20260507032105 55 5 1.7 2.6 0.00 0.08 0.08 81 1010.2
20260507031605 55 35 0.9 2.6 0.00 0.08 0.08 81 1010.4
20260507031106 55 349 0.9 4.3 0.00 0.08 0.08 81 1010.4
20260507030607 55 14 0.0 0.0 0.00 0.08 0.08 81 1010.6
20260507030105 55 14 0.0 1.7 0.00 0.08 0.08 81 1010.7
20260507025605 55 14 0.0 2.6 0.00 0.08 0.08 81 1010.8
20260507025104 55 12 0.9 2.6 0.00 0.08 0.08 80 1010.7
20260507024605 56 15 2.6 7.0 0.00 0.08 0.08 81 1010.7
20260507024106 56 71 1.7 7.8 0.00 0.08 0.08 81 1010.7
20260507023605 56 3 3.5 7.8 0.00 0.08 0.08 82 1010.7
20260507022604 57 345 1.7 10.4 0.00 0.08 0.08 84 1010.7
20260507022105 57 294 1.7 10.4 0.00 0.08 0.08 84 1010.6
20260507021605 57 340 5.2 8.7 0.00 0.08 0.08 85 1010.4
20260507021105 58 292 4.3 7.8 0.00 0.08 0.08 85 1010.3
20260507020606 58 305 2.6 7.0 0.00 0.08 0.08 85 1010.2
20260507020105 58 317 2.6 5.2 0.00 0.08 0.08 85 1010.1
20260507015605 58 341 1.7 2.6 0.00 0.08 0.08 85 1010.1
20260507015105 58 309 1.7 4.3 0.00 0.08 0.08 85 1010.1
20260507014605 58 305 2.6 6.1 0.00 0.08 0.08 84 1010.2
20260507014104 58 325 4.3 10.4 0.00 0.08 0.08 83 1010.0
20260507013605 58 318 2.6 7.0 0.00 0.08 0.08 83 1010.0
20260507013105 58 342 2.6 7.8 0.00 0.08 0.08 84 1010.0
20260507012605 59 346 4.3 10.4 0.00 0.08 0.08 86 1010.0
20260507012105 59 329 2.6 6.1 0.00 0.08 0.08 87 1009.9
20260507011606 60 298 5.2 7.8 0.00 0.08 0.08 87 1009.9
20260507010604 60 349 2.6 8.7 0.00 0.08 0.08 87 1009.6
20260507010104 60 329 2.6 7.8 0.00 0.08 0.08 88 1009.6
20260507005604 60 299 2.6 7.8 0.00 0.08 0.08 88 1009.3
20260507005105 61 289 5.2 8.7 0.00 0.08 0.08 88 1009.0
20260507004605 61 294 1.7 6.1 0.00 0.08 0.08 88 1008.9
20260507004105 61 300 4.3 7.0 0.00 0.08 0.08 88 1008.8
20260507003607 61 329 4.3 7.0 0.00 0.08 0.08 89 1008.7
20260507003105 62 3 1.7 4.3 0.00 0.08 0.08 89 1008.5
20260507002606 62 330 1.7 2.6 0.00 0.08 0.08 90 1008.4
20260507002104 62 358 0.9 2.6 0.00 0.08 0.08 89 1008.5
20260507001605 62 350 2.6 5.2 0.00 0.08 0.08 89 1008.4
20260507001105 63 336 2.6 5.2 0.00 0.08 0.08 90 1008.4
20260507000604 63 280 0.0 2.6 0.00 0.08 0.08 90 1007.9
20260507000105 63 280 1.7 2.6 0.00 0.08 0.08 90 1007.8
20260506235605 63 268 0.0 2.6 0.00 0.08 0.08 89 1007.7
20260506235105 63 282 0.9 4.3 0.00 0.08 0.08 89 1007.7
20260506234606 63 247 0.0 1.7 0.00 0.08 0.08 89 1007.7
20260506233605 63 231 1.7 7.0 0.00 0.08 0.08 89 1007.7
20260506233105 63 251 1.7 7.0 0.00 0.08 0.08 89 1007.7
20260506232104 64 290 0.0 1.7 0.00 0.08 0.08 89 1007.6
20260506231604 64 289 0.0 1.7 0.00 0.08 0.08 88 1007.5
20260506231105 64 285 0.9 2.6 0.00 0.08 0.08 89 1007.4
20260506230105 64 284 0.9 2.6 0.00 0.08 0.08 88 1007.4
20260506225605 64 282 0.9 2.6 0.00 0.08 0.08 88 1007.4
20260506224605 64 277 0.9 10.4 0.00 0.08 0.08 88 1007.3
20260506224105 64 289 2.6 7.0 0.00 0.08 0.08 88 1007.3
20260506223605 64 276 2.6 7.0 0.00 0.08 0.08 88 1007.2
20260506223105 64 298 2.6 8.7 0.00 0.08 0.08 89 1007.2
20260506222605 64 274 4.3 11.3 0.00 0.08 0.08 89 1007.2
20260506221605 64 262 1.7 6.1 0.00 0.08 0.08 89 1007.1
20260506221105 64 272 2.6 8.7 0.00 0.08 0.08 89 1007.1
20260506220604 64 298 4.3 8.7 0.00 0.08 0.08 89 1007.2
20260506220104 64 290 2.6 7.8 0.00 0.08 0.08 89 1007.1
20260506215105 64 301 7.0 12.2 0.00 0.08 0.08 89 1007.2
20260506214604 64 278 2.6 7.0 0.00 0.08 0.08 90 1007.1
20260506214105 64 283 2.6 7.8 0.00 0.08 0.08 90 1007.1
20260506213605 64 263 4.3 7.0 0.00 0.08 0.08 91 1007.1
20260506213105 64 253 0.9 2.6 0.00 0.08 0.08 91 1007.1
20260506212606 64 278 0.0 2.6 0.00 0.08 0.08 91 1007.0
20260506212105 64 272 0.9 2.6 0.00 0.08 0.08 92 1006.9
20260506211604 64 255 0.9 2.6 0.00 0.08 0.08 92 1006.6
20260506211105 64 235 0.9 2.6 0.00 0.08 0.08 92 1006.8